GW7179 Weather Reports


Display with metric or nautical units.
time (UTC)temp
F
wind
direction
speed
MPH
gust
MPH
rain 1hr
in
rain 24hr
in
rain mn
in
humidity
%
barometer
mb
20260506073431 59 44 4.0 8.0 0.00 0.00 0.00 74 992.9
20260506072931 59 61 4.0 5.0 0.00 0.00 0.00 74 992.9
20260506072431 59 79 2.0 4.0 0.00 0.00 0.00 74 993.2
20260506071931 59 38 6.0 7.0 0.00 0.00 0.00 74 992.9
20260506071432 59 322 10.0 10.0 0.00 0.00 0.00 74 993.2
20260506070931 59 2 3.0 6.0 0.00 0.00 0.00 74 993.2
20260506070432 60 41 7.0 8.0 0.00 0.00 0.00 74 993.2
20260506062431 60 82 3.0 8.0 0.00 0.00 0.00 75 992.9
20260506061931 60 358 2.0 7.0 0.00 0.00 0.00 76 992.9
20260506061431 60 25 4.0 9.0 0.00 0.00 0.00 76 993.2
20260506060931 60 65 3.0 7.0 0.00 0.00 0.00 76 993.2
20260506060432 60 19 5.0 9.0 0.00 0.00 0.00 76 993.2
20260506050931 61 6 5.0 14.0 0.00 0.00 0.00 76 993.6
20260506050431 61 303 4.0 10.0 0.00 0.00 0.00 76 993.2
20260506044931 62 315 6.0 9.0 0.00 0.00 0.00 76 993.2
20260506044431 62 14 5.0 7.0 0.00 0.00 0.00 75 992.9
20260506043931 62 298 4.0 8.0 0.00 0.00 0.00 75 993.2
20260506043432 62 342 3.0 9.0 0.00 0.00 0.00 75 993.2
20260506042932 63 306 6.0 9.0 0.00 0.00 0.00 75 993.2
20260506042433 63 321 5.0 14.0 0.00 0.00 0.00 75 992.9
20260506041931 63 305 4.0 12.0 0.00 0.00 0.00 75 992.9
20260506041431 64 312 5.0 8.0 0.00 0.00 0.00 75 993.2
20260506040931 64 340 5.0 10.0 0.00 0.00 0.00 75 992.9
20260506040433 64 294 4.0 8.0 0.00 0.00 0.00 75 992.9
20260506035932 64 349 6.0 12.0 0.00 0.00 0.00 74 992.9
20260506035431 64 347 6.0 7.0 0.00 0.00 0.00 74 992.6
20260506034931 65 16 5.0 9.0 0.00 0.00 0.00 74 992.6
20260506034431 65 69 2.0 10.0 0.00 0.00 0.00 74 992.2
20260506033933 65 35 5.0 9.0 0.00 0.00 0.00 74 992.2
20260506033432 65 346 3.0 6.0 0.00 0.00 0.00 74 992.6
20260506032931 65 15 6.0 9.0 0.00 0.00 0.00 73 991.9
20260506032432 66 20 7.0 8.0 0.00 0.00 0.00 73 992.2
20260506031931 66 355 3.0 13.0 0.00 0.00 0.00 73 991.9
20260506031431 66 0 7.0 14.0 0.00 0.00 0.00 73 992.2
20260506030931 66 0 4.0 9.0 0.00 0.00 0.00 73 992.2
20260506030432 66 323 4.0 9.0 0.00 0.00 0.00 72 991.9
20260506025933 67 313 5.0 12.0 0.00 0.00 0.00 72 991.9
20260506025432 68 328 4.0 12.0 0.00 0.00 0.00 72 991.5
20260506024932 68 325 4.0 14.0 0.00 0.00 0.00 71 991.5
20260506024439 68 292 4.0 10.0 0.00 0.00 0.00 71 991.5
20260506023931 68 330 3.0 9.0 0.00 0.00 0.00 71 991.5
20260506023431 68 320 5.0 7.0 0.00 0.00 0.00 70 991.2
20260506022931 68 329 5.0 7.0 0.00 0.00 0.00 70 991.2
20260506022431 68 333 6.0 10.0 0.00 0.00 0.00 69 990.9
20260506021931 68 333 3.0 7.0 0.00 0.00 0.00 69 990.9
20260506021432 69 311 3.0 5.0 0.00 0.00 0.00 69 990.9
20260506020931 69 323 4.0 8.0 0.00 0.00 0.00 68 990.5
20260506020431 69 318 9.0 9.0 0.00 0.00 0.00 68 990.9
20260506015932 69 351 3.0 8.0 0.00 0.00 0.00 68 990.5
20260506015431 69 321 4.0 7.0 0.00 0.00 0.00 68 990.2
20260506014931 69 12 3.0 8.0 0.00 0.00 0.00 68 989.8
20260506014431 69 296 2.0 7.0 0.00 0.00 0.00 68 990.2
20260506013931 69 354 4.0 7.0 0.00 0.00 0.00 68 990.2
20260506013431 69 320 4.0 7.0 0.00 0.00 0.00 68 989.8
20260506012932 70 293 3.0 9.0 0.00 0.00 0.00 67 989.8
20260506012431 70 341 3.0 11.0 0.00 0.00 0.00 67 989.8
20260506011931 71 9 4.0 6.0 0.00 0.00 0.00 66 990.2
20260506011431 71 4 4.0 7.0 0.00 0.00 0.00 66 989.8
20260506010931 71 319 1.0 4.0 0.00 0.00 0.00 66 989.8
20260506010432 72 321 3.0 4.0 0.00 0.00 0.00 65 989.8
20260506005932 72 16 3.0 8.0 0.00 0.00 0.00 64 989.5
20260506005431 72 306 5.0 11.0 0.00 0.00 0.00 64 989.5
20260506004932 73 0 7.0 12.0 0.00 0.00 0.00 65 989.5
20260506004432 73 318 2.0 9.0 0.00 0.00 0.00 66 989.5
20260506003932 73 7 3.0 7.0 0.00 0.00 0.00 65 988.8
20260506003432 73 347 3.0 10.0 0.00 0.00 0.00 65 988.5
20260506002933 73 309 7.0 9.0 0.00 0.00 0.00 64 988.8
20260506002431 73 310 6.0 9.0 0.00 0.00 0.00 64 988.8
20260506001932 73 11 6.0 7.0 0.00 0.00 0.00 65 988.8
20260506001431 74 321 6.0 11.0 0.00 0.00 0.00 64 988.5
20260506000931 74 332 6.0 13.0 0.00 0.00 0.00 64 988.5
20260506000431 75 337 7.0 15.0 0.00 0.00 0.00 63 988.5
20260505235931 75 300 4.0 9.0 0.00 0.00 0.00 63 988.5
20260505235432 76 318 6.0 13.0 0.00 0.00 0.00 62 988.5
20260505234931 77 1 5.0 14.0 0.00 0.00 0.00 60 988.5
20260505234431 78 303 8.0 9.0 0.00 0.00 0.00 60 988.5
20260505233932 78 290 7.0 10.0 0.00 0.00 0.00 60 988.1
20260505233433 78 307 6.0 9.0 0.00 0.00 0.00 60 988.1
20260505232931 79 322 9.0 12.0 0.00 0.00 0.00 59 988.1
20260505232431 79 295 4.0 8.0 0.00 0.00 0.00 59 988.5
20260505231931 80 315 4.0 13.0 0.00 0.00 0.00 59 988.5
20260505231431 80 281 6.0 14.0 0.00 0.00 0.00 57 988.1
20260505230931 81 351 5.0 11.0 0.00 0.00 0.00 56 987.8
20260505230431 82 310 7.0 11.0 0.00 0.00 0.00 55 987.8
20260505225932 82 303 7.0 13.0 0.00 0.00 0.00 55 987.8
20260505225431 82 305 5.0 10.0 0.00 0.00 0.00 54 987.8
20260505224931 82 311 8.0 11.0 0.00 0.00 0.00 53 987.8
20260505224431 83 315 7.0 12.0 0.00 0.00 0.00 53 987.5
20260505223932 83 283 4.0 12.0 0.00 0.00 0.00 53 987.5
20260505223431 84 308 5.0 11.0 0.00 0.00 0.00 52 987.5
20260505222931 84 315 6.0 10.0 0.00 0.00 0.00 50 987.5
20260505222431 84 319 7.0 9.0 0.00 0.00 0.00 48 987.5
20260505221933 84 295 3.0 9.0 0.00 0.00 0.00 47 987.5
20260505221432 84 289 5.0 13.0 0.00 0.00 0.00 47 987.1
20260505220931 85 281 9.0 11.0 0.00 0.00 0.00 47 987.5
20260505220431 85 318 6.0 9.0 0.00 0.00 0.00 45 987.1
20260505215932 86 297 7.0 12.0 0.00 0.00 0.00 45 986.8
20260505215431 86 304 3.0 9.0 0.00 0.00 0.00 47 987.1
20260505214932 86 314 10.0 11.0 0.00 0.00 0.00 46 987.1
20260505214431 88 341 5.0 13.0 0.00 0.00 0.00 44 987.5
20260505213931 88 307 7.0 9.0 0.00 0.00 0.00 47 987.1
20260505213432 88 284 7.0 8.0 0.00 0.00 0.00 47 987.1
20260505212931 88 272 4.0 7.0 0.00 0.00 0.00 48 987.1
20260505212431 88 268 4.0 6.0 0.00 0.00 0.00 47 986.8
20260505211931 88 294 4.0 6.0 0.00 0.00 0.00 48 987.1
20260505211431 88 285 4.0 9.0 0.00 0.00 0.00 46 987.1
20260505210931 88 306 7.0 11.0 0.00 0.00 0.00 47 987.5
20260505210432 88 270 6.0 11.0 0.00 0.00 0.00 47 987.5
20260505205932 89 260 9.0 11.0 0.00 0.00 0.00 48 987.5
20260505205431 88 258 6.0 9.0 0.00 0.00 0.00 48 987.5
20260505204931 88 265 5.0 13.0 0.00 0.00 0.00 46 987.5
20260505204432 89 285 9.0 10.0 0.00 0.00 0.00 48 987.1
20260505203933 88 275 3.0 6.0 0.00 0.00 0.00 49 987.5
20260505203431 88 282 9.0 9.0 0.00 0.00 0.00 48 987.8
20260505202932 88 273 9.0 10.0 0.00 0.00 0.00 50 987.5
20260505202431 88 260 7.0 10.0 0.00 0.00 0.00 50 987.5
20260505201931 88 281 9.0 12.0 0.00 0.00 0.00 52 987.8
20260505201431 87 267 4.0 9.0 0.00 0.00 0.00 53 987.8
20260505200931 88 262 5.0 10.0 0.00 0.00 0.00 50 987.8
20260505200431 87 247 3.0 5.0 0.00 0.00 0.00 53 987.8
20260505195931 87 271 8.0 9.0 0.00 0.00 0.00 52 988.1
20260505195431 87 287 8.0 9.0 0.00 0.00 0.00 53 987.8
20260505194932 87 248 3.0 6.0 0.00 0.00 0.00 54 987.8
20260505194432 87 286 4.0 7.0 0.00 0.00 0.00 55 987.8
20260505193931 86 203 3.0 5.0 0.00 0.00 0.00 56 988.1
20260505193433 86 258 3.0 7.0 0.00 0.00 0.00 57 988.1
20260505192931 86 245 5.0 6.0 0.00 0.00 0.00 58 988.1
20260505192431 85 218 4.0 7.0 0.00 0.00 0.00 58 988.1
20260505191932 85 248 4.0 5.0 0.00 0.00 0.00 58 988.1
20260505191431 84 219 3.0 5.0 0.00 0.00 0.00 58 988.1
20260505190931 84 246 5.0 7.0 0.00 0.00 0.00 60 988.1
20260505190431 84 178 5.0 8.0 0.00 0.00 0.00 59 988.1
20260505185931 84 222 5.0 6.0 0.00 0.00 0.00 60 988.1
20260505185432 84 260 3.0 6.0 0.00 0.00 0.00 60 988.1
20260505184932 84 237 3.0 7.0 0.00 0.00 0.00 60 988.1
20260505184431 83 262 2.0 9.0 0.00 0.00 0.00 62 988.1
20260505183931 83 214 4.0 8.0 0.00 0.00 0.00 62 988.1
20260505183431 82 284 2.0 7.0 0.00 0.00 0.00 63 988.1
20260505182932 82 212 6.0 8.0 0.00 0.00 0.00 62 988.5
20260505182431 82 238 3.0 7.0 0.00 0.00 0.00 62 988.1
20260505181931 82 263 2.0 9.0 0.00 0.00 0.00 62 988.1
20260505181434 82 157 4.0 8.0 0.00 0.00 0.00 63 988.1
20260505180932 82 237 3.0 5.0 0.00 0.00 0.00 64 988.1
20260505180432 82 233 3.0 5.0 0.00 0.00 0.00 63 988.5
20260505175932 82 240 3.0 5.0 0.00 0.00 0.00 64 988.1
20260505175431 82 264 3.0 6.0 0.00 0.00 0.00 64 988.1
20260505174931 82 241 1.0 7.0 0.00 0.00 0.00 63 988.1
20260505174431 82 236 4.0 9.0 0.00 0.00 0.00 63 988.1
20260505173931 82 213 4.0 10.0 0.00 0.00 0.00 63 988.1
20260505173432 81 192 1.0 7.0 0.00 0.00 0.00 64 988.1
20260505172932 81 256 4.0 7.0 0.00 0.00 0.00 64 988.1
20260505172431 81 195 5.0 6.0 0.00 0.00 0.00 65 988.5
20260505171932 81 257 4.0 8.0 0.00 0.00 0.00 64 988.1
20260505171432 81 221 3.0 8.0 0.00 0.00 0.00 64 988.1
20260505170931 80 215 5.0 5.0 0.00 0.00 0.00 66 988.5
20260505170432 80 269 2.0 5.0 0.00 0.00 0.00 66 988.1
20260505165931 80 238 4.0 8.0 0.00 0.00 0.00 67 988.5
20260505165432 79 209 3.0 6.0 0.00 0.00 0.00 68 988.5
20260505164932 79 210 3.0 8.0 0.00 0.00 0.00 68 988.5
20260505164431 79 236 2.0 8.0 0.00 0.00 0.00 68 988.5
20260505163932 79 227 4.0 7.0 0.00 0.00 0.00 68 988.5
20260505163431 78 231 4.0 4.0 0.00 0.00 0.00 70 988.1
20260505162931 78 212 4.0 10.0 0.00 0.00 0.00 69 988.1
20260505162433 79 190 4.0 9.0 0.00 0.00 0.00 69 988.1
20260505161932 79 160 4.0 10.0 0.00 0.00 0.00 68 988.1
20260505161431 78 271 1.0 7.0 0.00 0.00 0.00 69 987.8
20260505160931 78 220 5.0 10.0 0.00 0.00 0.00 70 988.1
20260505160431 78 272 2.0 8.0 0.00 0.00 0.00 70 988.1
20260505152931 76 137 2.0 7.0 0.00 0.00 0.00 74 988.1
20260505152431 75 211 3.0 5.0 0.00 0.00 0.00 75 988.1
20260505151932 76 215 3.0 7.0 0.00 0.00 0.00 75 988.1
20260505151432 76 236 4.0 7.0 0.00 0.00 0.00 74 988.1
20260505150931 76 197 2.0 9.0 0.00 0.00 0.00 73 987.8
20260505150432 75 207 5.0 5.0 0.00 0.00 0.00 76 988.1
20260505140432 73 334 1.0 13.0 0.00 0.00 0.00 81 987.8
20260505124931 71 214 3.0 15.0 0.00 0.00 0.00 85 987.8
20260505124434 71 127 3.0 7.0 0.00 0.00 0.00 85 987.5
20260505123932 71 151 4.0 7.0 0.00 0.00 0.00 85 987.5
20260505123431 71 151 4.0 7.0 0.00 0.00 0.00 85 987.5
20260505122931 71 201 5.0 9.0 0.00 0.00 0.00 85 987.5
20260505122432 71 204 7.0 10.0 0.00 0.00 0.00 85 987.1
20260505121932 71 163 2.0 7.0 0.00 0.00 0.00 85 987.5
20260505121431 71 172 3.0 7.0 0.00 0.00 0.00 85 987.1
20260505120934 71 229 3.0 7.0 0.00 0.00 0.00 85 987.1
20260505120432 71 148 1.0 6.0 0.00 0.00 0.00 85 987.1
20260505115932 71 178 8.0 9.0 0.00 0.00 0.00 85 987.1
20260505115432 71 175 5.0 5.0 0.00 0.00 0.00 85 987.1
20260505114933 71 201 5.0 11.0 0.00 0.00 0.00 85 987.1
20260505114431 71 176 3.0 5.0 0.00 0.00 0.00 85 987.1
20260505113445 71 144 3.0 9.0 0.00 0.00 0.00 85 986.8
20260505112931 71 162 4.0 7.0 0.00 0.00 0.00 84 986.8
20260505112431 71 162 5.0 9.0 0.00 0.00 0.00 85 987.1
20260505111932 71 186 0.0 6.0 0.00 0.00 0.00 84 986.8
20260505111431 71 189 3.0 8.0 0.00 0.00 0.00 85 986.8
20260505110931 71 146 3.0 5.0 0.00 0.00 0.00 85 986.8
20260505110431 71 258 2.0 6.0 0.00 0.00 0.00 85 986.8
20260505101931 71 141 8.0 13.0 0.00 0.00 0.00 83 986.8
20260505101431 71 183 5.0 9.0 0.00 0.00 0.00 83 986.8
20260505100931 71 199 3.0 10.0 0.00 0.00 0.00 83 986.8
20260505100433 71 225 3.0 13.0 0.00 0.00 0.00 83 986.8
20260505095931 71 208 4.0 5.0 0.00 0.00 0.00 83 987.1
20260505095434 71 205 2.0 11.0 0.00 0.00 0.00 83 987.1
20260505094932 71 176 3.0 7.0 0.00 0.00 0.00 83 986.8
20260505094432 71 212 8.0 14.0 0.00 0.00 0.00 82 986.8
20260505093931 71 177 5.0 11.0 0.00 0.00 0.00 82 986.8
20260505093433 72 192 3.0 9.0 0.00 0.00 0.00 82 987.1
20260505092933 72 173 5.0 7.0 0.00 0.00 0.00 82 987.1
20260505092432 72 207 2.0 10.0 0.00 0.00 0.00 81 987.1
20260505091448 72 215 5.0 8.0 0.00 0.00 0.00 81 987.1
20260505090933 72 137 4.0 11.0 0.00 0.00 0.00 81 987.1
20260505090437 72 236 2.0 12.0 0.00 0.00 0.00 81 987.5
20260505085931 72 187 3.0 9.0 0.00 0.00 0.00 81 987.5
20260505085432 72 153 2.0 7.0 0.00 0.00 0.00 80 987.5
20260505084933 72 187 5.0 11.0 0.00 0.00 0.00 80 987.1
20260505083943 72 207 5.0 7.0 0.00 0.00 0.00 79 987.5
20260505083431 72 173 2.0 9.0 0.00 0.00 0.00 79 987.5
20260505082932 72 151 9.0 10.0 0.00 0.00 0.00 79 987.5
20260505082431 72 214 3.0 11.0 0.00 0.00 0.00 79 987.5
20260505081931 72 180 4.0 8.0 0.00 0.00 0.00 79 987.5
20260505081432 72 149 4.0 6.0 0.00 0.00 0.00 79 987.5
20260505080933 73 201 3.0 7.0 0.00 0.00 0.00 78 987.5
20260505080432 73 170 5.0 8.0 0.00 0.00 0.00 78 987.5
20260505075934 73 169 7.0 7.0 0.00 0.00 0.00 78 987.5
20260505075432 73 165 4.0 7.0 0.00 0.00 0.00 77 987.8